Weather History for Hailey, ID

Change the Weather History Date:

Friday, February 1, 2013

  Actual Average Record
Temperature  
Mean Temperature 29 °F -  
Max Temperature 37 °F 35 °F 46 °F (2003)
Min Temperature 21 °F 14 °F 1 °F (2011)
Degree Days  
Heating Degree Days 36    
Moisture  
Dew Point 23 °F    
Average Humidity 84    
Maximum Humidity 100    
Minimum Humidity 65    
Precipitation  
Precipitation 0.00 in - - ()
Sea Level Pressure  
Sea Level Pressure 30.25 in    
Wind  
Wind Speed 8 mph (NW)    
Max Wind Speed 12 mph    
Max Gust Speed -    
Visibility 10 miles    
Events      
Averages and records for this station are not official NWS values.
T = Trace of Precipitation, MM = Missing Value Source: NWS Daily Summary

Daily Weather History Graph

Daily Weather History Graph

Search for Another Location

Airport:

Trip Planner

Search our weather history database for the weather conditions in past years. The results will help you decide how hot, cold, wet, or windy it might be!

Date:

Astronomy

Feb. 01, 2013 Rise Set
Actual Time 7:53 AM MST 5:49 PM MST
Civil Twilight 7:22 AM MST 6:19 PM MST
Nautical Twilight 6:48 AM MST 6:53 PM MST
Astronomical Twilight 6:14 AM MST 7:27 PM MST
Moon No Moon Rise 10:16 AM MST (2/1)
Length of Visible Light 10h 56m
Length of Day
9h 56m
Waning Gibbous, 69% of the Moon is Illuminated
Feb 1
Waning Gibbous
Feb 3
Last Quarter
Feb 10
New
Feb 17
First Quarter
Feb 25
Full

Hourly Weather History & Observations

Time (MST) Temp. Windchill Dew Point Humidity Pressure Visibility Wind Dir Wind Speed Gust Speed Precip Events Conditions
12:15 AM 28.4 °F 22.2 °F 24.8 °F 86% 30.20 in 10.0 mi NW 5.8 mph - N/A   Clear
12:35 AM 28.4 °F 20.4 °F 23.0 °F 80% 30.20 in 10.0 mi NW 8.1 mph - N/A   Clear
12:55 AM 28.4 °F 19.7 °F 23.0 °F 80% 30.20 in 10.0 mi NW 9.2 mph - N/A   Clear
1:15 AM 28.4 °F 20.4 °F 23.0 °F 80% 30.19 in 10.0 mi NW 8.1 mph - N/A   Clear
1:35 AM 26.6 °F 17.5 °F 23.0 °F 86% 30.20 in 10.0 mi NW 9.2 mph - N/A   Clear
1:55 AM 26.6 °F 19.1 °F 23.0 °F 86% 30.19 in 10.0 mi NW 6.9 mph - N/A   Clear
2:15 AM 26.6 °F 18.2 °F 23.0 °F 86% 30.20 in 10.0 mi NW 8.1 mph - N/A   Clear
2:35 AM 26.6 °F 17.5 °F 21.2 °F 80% 30.20 in 10.0 mi NW 9.2 mph - N/A   Clear
2:55 AM 24.8 °F 15.3 °F 21.2 °F 86% 30.20 in 10.0 mi NW 9.2 mph - N/A   Clear
3:15 AM 24.8 °F 14.0 °F 21.2 °F 86% 30.20 in 10.0 mi NW 11.5 mph - N/A   Clear
3:35 AM 24.8 °F 14.6 °F 21.2 °F 86% 30.20 in 10.0 mi NW 10.4 mph - N/A   Clear
3:55 AM 24.8 °F 14.0 °F 21.2 °F 86% 30.19 in 10.0 mi NW 11.5 mph - N/A   Clear
4:15 AM 23.0 °F 11.7 °F 21.2 °F 93% 30.19 in 10.0 mi NW 11.5 mph - N/A   Clear
4:35 AM 23.0 °F 12.4 °F 19.4 °F 86% 30.18 in 10.0 mi NW 10.4 mph - N/A   Clear
4:55 AM 23.0 °F 12.4 °F 19.4 °F 86% 30.18 in 10.0 mi NW 10.4 mph - N/A   Clear
5:15 AM 23.0 °F 13.9 °F 19.4 °F 86% 30.18 in 10.0 mi NW 8.1 mph - N/A   Clear
5:35 AM 23.0 °F 12.4 °F 19.4 °F 86% 30.19 in 10.0 mi NW 10.4 mph - N/A   Clear
5:55 AM 23.0 °F 12.4 °F 19.4 °F 86% 30.19 in 10.0 mi NW 10.4 mph - N/A   Clear
6:47 AM 21.2 °F 10.1 °F 17.6 °F 86% 30.18 in 10.0 mi WNW 10.4 mph - N/A   Partly Cloudy
8:47 AM 21.2 °F 10.1 °F 17.6 °F 86% 30.20 in 10.0 mi WNW 10.4 mph - N/A   Partly Cloudy
10:47 AM 28.4 °F 21.2 °F 21.2 °F 74% 30.24 in 10.0 mi NW 6.9 mph - N/A   Partly Cloudy
11:50 AM 33.8 °F - 23.0 °F 65% 30.26 in 10.0 mi Calm Calm - N/A   Partly Cloudy
12:54 PM 37.4 °F 32.1 °F 26.6 °F 65% 30.25 in 10.0 mi ESE 6.9 mph - N/A   Clear
1:47 PM 37.4 °F 30.8 °F 28.4 °F 70% 30.25 in 10.0 mi ESE 9.2 mph - N/A   Clear
2:47 PM 37.4 °F 32.1 °F 28.4 °F 70% 30.26 in 10.0 mi ESE 6.9 mph - N/A   Partly Cloudy
3:47 PM 35.6 °F 29.9 °F 30.2 °F 81% 30.27 in 10.0 mi ESE 6.9 mph - N/A   Partly Cloudy
4:50 PM 35.6 °F 28.6 °F 30.2 °F 81% 30.28 in 10.0 mi SE 9.2 mph - N/A   Partly Cloudy
5:47 PM 32.0 °F 23.6 °F 30.2 °F 93% 30.29 in 10.0 mi SE 10.4 mph - N/A   Partly Cloudy
6:47 PM 28.4 °F - 28.4 °F 100% 30.31 in 7.0 mi Calm Calm - N/A   Partly Cloudy
7:47 PM 28.4 °F 22.2 °F 28.4 °F 100% 30.32 in 10.0 mi NW 5.8 mph - N/A   Partly Cloudy
8:50 PM 28.4 °F 20.4 °F 26.6 °F 93% 30.32 in 10.0 mi West 8.1 mph - N/A   Clear
9:47 PM 26.6 °F 20.0 °F 24.8 °F 93% 30.34 in 10.0 mi NW 5.8 mph - N/A   Clear
10:15 PM 28.4 °F 21.2 °F 23.0 °F 80% 30.35 in 10.0 mi NNW 6.9 mph - N/A   Clear
10:35 PM 28.4 °F 21.2 °F 23.0 °F 80% 30.36 in 10.0 mi NW 6.9 mph - N/A   Clear
10:47 PM 26.6 °F - 23.0 °F 86% 30.36 in 10.0 mi Calm Calm - N/A   Clear
10:55 PM 26.6 °F - 23.0 °F 86% 30.37 in 10.0 mi Calm Calm - N/A   Clear
11:15 PM 26.6 °F 21.2 °F 23.0 °F 86% 30.38 in 10.0 mi WNW 4.6 mph - N/A   Clear
11:55 PM 24.8 °F 16.9 °F 21.2 °F 86% 30.39 in 10.0 mi NW 6.9 mph - N/A   Clear